Time,TemperatureF,DewpointF,PressureIn,WindDirection,WindDirectionDegrees,WindSpeedMPH,WindSpeedGustMPH,Humidity,HourlyPrecipIn,Conditions,Clouds,dailyrainin,SolarRadiationWatts/m^2,SoftwareType,DateUTC
2013-04-22 00:02:00,40.0,16.0,-100.00,SE,146,2.0,5.0,37,0.00,,,0.03,0.000000,,2013-04-22 06:02:00,
2013-04-22 00:12:00,40.0,16.0,-100.00,SE,146,2.0,5.0,37,0.00,,,0.03,0.000000,,2013-04-22 06:12:00,
2013-04-22 00:32:00,39.0,19.0,-100.00,NNW,332,5.0,9.0,44,0.00,,,0.03,0.000000,,2013-04-22 06:32:00,
2013-04-22 00:42:00,39.0,19.0,-100.00,NNW,332,5.0,9.0,44,0.00,,,0.03,0.000000,,2013-04-22 06:42:00,
2013-04-22 00:52:00,39.0,19.0,-100.00,NNW,332,5.0,9.0,44,0.00,,,0.03,0.000000,,2013-04-22 06:52:00,
2013-04-22 01:01:00,39.0,19.0,-100.00,NNW,332,5.0,9.0,44,0.00,,,0.03,0.000000,,2013-04-22 07:01:00,
2013-04-22 01:12:00,39.0,19.0,-100.00,NNW,332,5.0,9.0,44,0.00,,,0.03,0.000000,,2013-04-22 07:12:00,
2013-04-22 01:32:00,36.0,19.0,-100.00,SSE,154,4.0,10.0,49,0.00,,,0.03,0.000000,,2013-04-22 07:32:00,
2013-04-22 01:42:00,36.0,19.0,-100.00,SSE,154,4.0,10.0,49,0.00,,,0.03,0.000000,,2013-04-22 07:42:00,
2013-04-22 01:52:00,36.0,19.0,-100.00,SSE,154,4.0,10.0,49,0.00,,,0.03,0.000000,,2013-04-22 07:52:00,
2013-04-22 02:02:00,36.0,19.0,-100.00,SSE,154,4.0,10.0,49,0.00,,,0.03,0.000000,,2013-04-22 08:02:00,
2013-04-22 02:11:00,36.0,19.0,-100.00,SSE,154,4.0,10.0,49,0.00,,,0.03,0.000000,,2013-04-22 08:11:00,
2013-04-22 02:32:00,36.0,20.0,-100.00,SSW,210,3.0,5.0,51,0.00,,,0.03,0.000000,,2013-04-22 08:32:00,
2013-04-22 02:42:00,36.0,20.0,-100.00,SSW,210,3.0,5.0,51,0.00,,,0.03,0.000000,,2013-04-22 08:42:00,
2013-04-22 02:53:00,36.0,20.0,-100.00,SSW,210,3.0,5.0,51,0.00,,,0.03,0.000000,,2013-04-22 08:53:00,
2013-04-22 03:01:00,36.0,20.0,-100.00,SSW,210,3.0,5.0,51,0.00,,,0.03,0.000000,,2013-04-22 09:01:00,
2013-04-22 03:11:00,36.0,20.0,-100.00,SSW,210,3.0,5.0,51,0.00,,,0.03,0.000000,,2013-04-22 09:11:00,
2013-04-22 03:33:00,36.0,21.0,-100.00,NNW,345,5.0,8.0,54,0.00,,,0.03,0.000000,,2013-04-22 09:33:00,
2013-04-22 03:42:00,36.0,21.0,-100.00,NNW,345,5.0,8.0,54,0.00,,,0.03,0.000000,,2013-04-22 09:42:00,
2013-04-22 03:52:00,36.0,21.0,-100.00,NNW,345,5.0,8.0,54,0.00,,,0.03,0.000000,,2013-04-22 09:52:00,
2013-04-22 04:03:00,36.0,21.0,-100.00,NNW,345,5.0,8.0,54,0.00,,,0.03,0.000000,,2013-04-22 10:03:00,
2013-04-22 04:12:00,36.0,21.0,-100.00,NNW,345,5.0,8.0,54,0.00,,,0.03,0.000000,,2013-04-22 10:12:00,
2013-04-22 04:32:00,37.0,23.0,-100.00,NW,323,6.0,13.0,56,0.00,,,0.03,0.000000,,2013-04-22 10:32:00,
2013-04-22 04:42:00,37.0,23.0,-100.00,NW,323,6.0,13.0,56,0.00,,,0.03,0.000000,,2013-04-22 10:42:00,
2013-04-22 04:52:00,37.0,23.0,-100.00,NW,323,6.0,13.0,56,0.00,,,0.03,0.000000,,2013-04-22 10:52:00,
2013-04-22 05:02:00,37.0,23.0,-100.00,NW,323,6.0,13.0,56,0.00,,,0.03,0.000000,,2013-04-22 11:02:00,
2013-04-22 05:12:00,37.0,23.0,-100.00,NW,323,6.0,13.0,56,0.00,,,0.03,0.000000,,2013-04-22 11:12:00,
2013-04-22 05:42:00,37.0,24.0,-100.00,NE,47,2.0,10.0,58,0.00,,,0.03,0.000000,,2013-04-22 11:42:00,
2013-04-22 05:52:00,37.0,24.0,-100.00,NE,47,2.0,10.0,58,0.00,,,0.03,0.000000,,2013-04-22 11:52:00,
2013-04-22 06:02:00,37.0,24.0,-100.00,NE,47,2.0,10.0,58,0.00,,,0.03,0.000000,,2013-04-22 12:02:00,
2013-04-22 06:12:00,37.0,24.0,-100.00,NE,47,2.0,10.0,58,0.00,,,0.03,0.000000,,2013-04-22 12:12:00,
2013-04-22 07:42:00,36.0,25.0,-100.00,NNW,339,1.0,6.0,65,-99.99,,,0.03,29.000000,,2013-04-22 13:42:00,
2013-04-22 07:53:00,36.0,25.0,-100.00,NNW,339,1.0,6.0,65,-99.99,,,0.03,29.000000,,2013-04-22 13:53:00,
2013-04-22 08:02:00,36.0,25.0,-100.00,NNW,339,1.0,6.0,65,-99.99,,,0.03,29.000000,,2013-04-22 14:02:00,
2013-04-22 08:11:00,36.0,25.0,-100.00,NNW,339,1.0,6.0,65,-99.99,,,0.03,29.000000,,2013-04-22 14:11:00,
2013-04-22 08:33:00,43.0,27.0,-100.00,ESE,114,3.0,10.0,53,0.00,,,0.01,228.000000,,2013-04-22 14:33:00,
2013-04-22 08:42:00,43.0,27.0,-100.00,ESE,114,3.0,10.0,53,0.00,,,0.01,228.000000,,2013-04-22 14:42:00,
2013-04-22 08:52:00,43.0,27.0,-100.00,ESE,114,3.0,10.0,53,0.00,,,0.01,228.000000,,2013-04-22 14:52:00,
2013-04-22 09:02:00,43.0,27.0,-100.00,ESE,114,3.0,10.0,53,0.00,,,0.01,228.000000,,2013-04-22 15:02:00,
2013-04-22 09:12:00,43.0,27.0,-100.00,ESE,114,3.0,10.0,53,0.00,,,0.01,228.000000,,2013-04-22 15:12:00,
2013-04-22 09:33:00,48.0,25.0,-100.00,SW,234,4.0,9.0,41,0.00,,,0.00,382.000000,,2013-04-22 15:33:00,
2013-04-22 09:43:00,48.0,25.0,-100.00,SW,234,4.0,9.0,41,0.00,,,0.00,382.000000,,2013-04-22 15:43:00,
2013-04-22 09:53:00,48.0,25.0,-100.00,SW,234,4.0,9.0,41,0.00,,,0.00,382.000000,,2013-04-22 15:53:00,
2013-04-22 10:03:00,48.0,25.0,-100.00,SW,234,4.0,9.0,41,0.00,,,0.00,382.000000,,2013-04-22 16:03:00,
2013-04-22 10:12:00,48.0,25.0,-100.00,SW,234,4.0,9.0,41,0.00,,,0.00,382.000000,,2013-04-22 16:12:00,
2013-04-22 10:33:00,48.0,22.0,-100.00,West,278,7.0,18.0,36,0.00,,,0.00,455.000000,,2013-04-22 16:33:00,
2013-04-22 10:42:00,48.0,22.0,-100.00,West,278,7.0,18.0,36,0.00,,,0.00,455.000000,,2013-04-22 16:42:00,
2013-04-22 10:52:00,48.0,22.0,-100.00,West,278,7.0,18.0,36,0.00,,,0.00,455.000000,,2013-04-22 16:52:00,
2013-04-22 11:02:00,48.0,22.0,-100.00,West,278,7.0,18.0,36,0.00,,,0.00,455.000000,,2013-04-22 17:02:00,
2013-04-22 11:12:00,48.0,22.0,-100.00,West,278,7.0,18.0,36,0.00,,,0.00,455.000000,,2013-04-22 17:12:00,
2013-04-22 11:32:00,51.0,21.0,-100.00,West,267,8.0,18.0,31,0.00,,,0.00,510.000000,,2013-04-22 17:32:00,
2013-04-22 11:43:00,51.0,21.0,-100.00,West,267,8.0,18.0,31,0.00,,,0.00,510.000000,,2013-04-22 17:43:00,
2013-04-22 11:52:00,51.0,21.0,-100.00,West,267,8.0,18.0,31,0.00,,,0.00,510.000000,,2013-04-22 17:52:00,
2013-04-22 12:01:00,51.0,21.0,-100.00,West,267,8.0,18.0,31,0.00,,,0.00,510.000000,,2013-04-22 18:01:00,
2013-04-22 12:12:00,51.0,21.0,-100.00,West,267,8.0,18.0,31,0.00,,,0.00,510.000000,,2013-04-22 18:12:00,
2013-04-22 12:42:00,50.0,21.0,-100.00,WSW,254,10.0,33.0,31,0.00,,,0.00,481.000000,,2013-04-22 18:42:00,
2013-04-22 12:52:00,50.0,21.0,-100.00,WSW,254,10.0,33.0,31,0.00,,,0.00,481.000000,,2013-04-22 18:52:00,
2013-04-22 13:01:00,50.0,21.0,-100.00,WSW,254,10.0,33.0,31,0.00,,,0.00,481.000000,,2013-04-22 19:01:00,
2013-04-22 13:12:00,50.0,21.0,-100.00,WSW,254,10.0,33.0,31,0.00,,,0.00,481.000000,,2013-04-22 19:12:00,
2013-04-22 13:42:00,50.0,21.0,-100.00,NW,314,8.0,32.0,31,0.00,,,0.00,795.000000,,2013-04-22 19:42:00,
2013-04-22 13:53:00,50.0,21.0,-100.00,NW,314,8.0,32.0,31,0.00,,,0.00,795.000000,,2013-04-22 19:53:00,
2013-04-22 14:02:00,50.0,21.0,-100.00,NW,314,8.0,32.0,31,0.00,,,0.00,795.000000,,2013-04-22 20:02:00,
2013-04-22 14:11:00,50.0,21.0,-100.00,NW,314,8.0,32.0,31,0.00,,,0.00,795.000000,,2013-04-22 20:11:00,
2013-04-22 14:42:00,52.0,23.0,-100.00,SW,230,9.0,25.0,32,0.00,,,0.00,722.000000,,2013-04-22 20:42:00,
2013-04-22 14:52:00,52.0,23.0,-100.00,SW,230,9.0,25.0,32,0.00,,,0.00,722.000000,,2013-04-22 20:52:00,
2013-04-22 15:02:00,52.0,23.0,-100.00,SW,230,9.0,25.0,32,0.00,,,0.00,722.000000,,2013-04-22 21:02:00,
2013-04-22 15:11:00,52.0,23.0,-100.00,SW,230,9.0,25.0,32,0.00,,,0.00,722.000000,,2013-04-22 21:11:00,
2013-04-22 15:33:00,51.0,24.0,-100.00,West,281,8.0,25.0,35,0.00,,,0.00,752.000000,,2013-04-22 21:33:00,
2013-04-22 15:43:00,51.0,24.0,-100.00,West,281,8.0,25.0,35,0.00,,,0.00,752.000000,,2013-04-22 21:43:00,
2013-04-22 15:53:00,51.0,24.0,-100.00,West,281,8.0,25.0,35,0.00,,,0.00,752.000000,,2013-04-22 21:53:00,
2013-04-22 16:03:00,51.0,24.0,-100.00,West,281,8.0,25.0,35,0.00,,,0.00,752.000000,,2013-04-22 22:03:00,
2013-04-22 16:12:00,51.0,24.0,-100.00,West,281,8.0,25.0,35,0.00,,,0.00,752.000000,,2013-04-22 22:12:00,
2013-04-22 16:42:00,46.0,28.0,-100.00,NW,307,7.0,21.0,50,0.00,,,0.00,521.000000,,2013-04-22 22:42:00,
2013-04-22 16:52:00,46.0,28.0,-100.00,NW,307,7.0,21.0,50,0.00,,,0.00,521.000000,,2013-04-22 22:52:00,
2013-04-22 17:02:00,46.0,28.0,-100.00,NW,307,7.0,21.0,50,0.00,,,0.00,521.000000,,2013-04-22 23:02:00,
2013-04-22 17:11:00,46.0,28.0,-100.00,NW,307,7.0,21.0,50,0.00,,,0.00,521.000000,,2013-04-22 23:11:00,
2013-04-22 17:33:00,43.0,30.0,-100.00,NW,318,8.0,23.0,61,0.00,,,0.00,318.000000,,2013-04-22 23:33:00,
2013-04-22 17:42:00,43.0,30.0,-100.00,NW,318,8.0,23.0,61,0.00,,,0.00,318.000000,,2013-04-22 23:42:00,
2013-04-22 17:52:00,43.0,30.0,-100.00,NW,318,8.0,23.0,61,0.00,,,0.00,318.000000,,2013-04-22 23:52:00,
2013-04-22 18:02:00,43.0,30.0,-100.00,NW,318,8.0,23.0,61,0.00,,,0.00,318.000000,,2013-04-23 00:02:00,
2013-04-22 18:12:00,43.0,30.0,-100.00,NW,318,8.0,23.0,61,0.00,,,0.00,318.000000,,2013-04-23 00:12:00,
2013-04-22 19:42:00,38.0,29.0,-100.00,NW,307,11.0,23.0,69,-99.99,,,0.00,61.000000,,2013-04-23 01:42:00,
2013-04-22 19:52:00,38.0,29.0,-100.00,NW,307,11.0,23.0,69,-99.99,,,0.00,61.000000,,2013-04-23 01:52:00,
2013-04-22 20:02:00,38.0,29.0,-100.00,NW,307,11.0,23.0,69,-99.99,,,0.00,61.000000,,2013-04-23 02:02:00,
2013-04-22 20:12:00,38.0,29.0,-100.00,NW,307,11.0,23.0,69,-99.99,,,0.00,61.000000,,2013-04-23 02:12:00,
2013-04-22 20:33:00,37.0,27.0,-100.00,West,273,6.0,23.0,68,0.00,,,0.00,5.000000,,2013-04-23 02:33:00,
2013-04-22 20:42:00,37.0,27.0,-100.00,West,273,6.0,23.0,68,0.00,,,0.00,5.000000,,2013-04-23 02:42:00,
2013-04-22 20:52:00,37.0,27.0,-100.00,West,273,6.0,23.0,68,0.00,,,0.00,5.000000,,2013-04-23 02:52:00,
2013-04-22 21:01:00,37.0,27.0,-100.00,West,273,6.0,23.0,68,0.00,,,0.00,5.000000,,2013-04-23 03:01:00,
2013-04-22 21:11:00,37.0,27.0,-100.00,West,273,6.0,23.0,68,0.00,,,0.00,5.000000,,2013-04-23 03:11:00,
2013-04-22 21:33:00,36.0,28.0,-100.00,NNW,336,3.0,13.0,73,0.00,,,0.00,0.000000,,2013-04-23 03:33:00,
2013-04-22 21:43:00,36.0,28.0,-100.00,NNW,336,3.0,13.0,73,0.00,,,0.00,0.000000,,2013-04-23 03:43:00,
2013-04-22 21:53:00,36.0,28.0,-100.00,NNW,336,3.0,13.0,73,0.00,,,0.00,0.000000,,2013-04-23 03:53:00,
2013-04-22 22:03:00,36.0,28.0,-100.00,NNW,336,3.0,13.0,73,0.00,,,0.00,0.000000,,2013-04-23 04:03:00,
2013-04-22 22:12:00,36.0,28.0,-100.00,NNW,336,3.0,13.0,73,0.00,,,0.00,0.000000,,2013-04-23 04:12:00,
2013-04-22 22:33:00,36.0,29.0,-100.00,South,175,1.0,10.0,75,0.00,,,0.00,0.000000,,2013-04-23 04:33:00,
2013-04-22 22:44:00,36.0,29.0,-100.00,South,175,1.0,10.0,75,0.00,,,0.00,0.000000,,2013-04-23 04:44:00,
2013-04-22 22:53:00,36.0,29.0,-100.00,South,175,1.0,10.0,75,0.00,,,0.00,0.000000,,2013-04-23 04:53:00,
2013-04-22 23:02:00,36.0,29.0,-100.00,South,175,1.0,10.0,75,0.00,,,0.00,0.000000,,2013-04-23 05:02:00,
2013-04-22 23:12:00,36.0,29.0,-100.00,South,175,1.0,10.0,75,0.00,,,0.00,0.000000,,2013-04-23 05:12:00,
2013-04-22 23:42:00,34.0,26.0,-100.00,WSW,246,2.0,8.0,73,0.00,,,0.00,0.000000,,2013-04-23 05:42:00,
2013-04-22 23:52:00,34.0,26.0,-100.00,WSW,246,2.0,8.0,73,0.00,,,0.00,0.000000,,2013-04-23 05:52:00,